Location: Newark
(50.0336°N, 22.0047°E)
Time: 14:04:07
(UTC+00:00)

N. Korean satellite - Pass Details

Date: 01 February 2020
Orbit: 456 x 505 km, 97.2° (Epoch: 29 February)

Event Time Altitude Azimuth Distance (km) Brightness Sun altitude
Rises 16:29:34 0° 208° (SSW) 2,469 10.8 -10.5°
Reaches altitude 10° 16:32:17 10° 233° (SW) 1,606 10.4 -11.0°
Maximum altitude 16:34:20 15° 270° (W) 1,338 10.1 -11.3°
Drops below altitude 10° 16:36:25 10° 307° (NW) 1,626 9.8 -11.6°
Sets 16:39:12 0° 331° (NNW) 2,519 10.4 -12.0°
